Regional Weather Roundup
Issued by NWS Grand Forks, ND

Home | Current Version | Previous Version | Graphics & Text | Print | Product List | Glossary On
Versions: 1 2 3 4 5 6 7 8 9 10 11 12 13 14 15 16 17 18 19 20 21 22 23 24 25 26 27 28 29 30 31 32 33 34 35 36 37 38 39 40 41 42 43 44 45 46 47 48 49 50
000
ASUS43 KFGF 190310
RWRFGF
PRAIRIE TO PINES  WEATHER ROUNDUP
NATIONAL WEATHER SERVICE EASTERN NORTH DAKOTA/GRAND FORKS ND
900 PM CST WED JAN 18 2017

 **SATELLITE DATA USED TO AUGMENT SKY COVER AT AUTOMATED STATIONS**
 *****  WEATHER ACROSS EASTERN NORTH DAKOTA  *****

CITY           SKY/WX    TMP DP  RH WIND       PRES   REMARKS
GRAND FORKS    FAIR      27  20  75 S10       29.65F WCI  17
GRAND FRKS AFB FAIR      25  21  85 S13       29.64F WCI  14
DEVILS LAKE    FAIR      34  24  67 S9        29.59F
FARGO          FAIR      32  26  78 S10       29.71S WCI  24
WAHPETON ARPT  FAIR      28  25  86 SE7       29.74S WCI  21
$$

 ***** WEATHER ACROSS CENTRAL AND WESTERN NORTH DAKOTA  *****

CITY           SKY/WX    TMP DP  RH WIND       PRES   REMARKS
BISMARCK       FAIR      20  14  77 SE7       29.63F WCI  11
MINOT          FAIR      37  27  67 SW17      29.51F
JAMESTOWN      FAIR      27  22  81 S10       29.63F WCI  17
MINOT AFB      FAIR      34  27  74 SW9       29.50F
GARRISON         N/A     29  24  82 CALM      29.56F
WILLISTON      FAIR      28  24  85 SW5       29.55F WCI  23
DICKINSON      FAIR      34  22  61 W6        29.55F
HETTINGER      FAIR      29  21  72 SE6       29.60F WCI  23
$$

 *****  OTHER AIRPORT OBSERVATIONS IN OUR AREA  *****

CITY           SKY/WX    TMP DP  RH WIND       PRES   REMARKS
WALHALLA       NOT AVBL
GRAFTON AIRPOR FAIR      25  23  93 S13       29.65S WCI  13
VALLEY CITY AR FAIR      25  25 100 S13       29.68F WCI  13
CANDO          NOT AVBL
CAVALIER APRT    N/A     28  25  86 S12       29.59F WCI  18
GWINNER        FAIR      30  27  86 SW12      29.70F WCI  21
SHEYENNE NWR     N/A     26  21  80 S5        29.95  WCI  20
ROLLA            N/A    N/A N/A N/A MISG        N/A
 ***** THE ABOVE OBSERVATIONS ARE NON NWS ARE NOT QUALITY
       CONTROLLED AND MAY MIS-REPORT RAIN FOR SNOW...
$$

  *****  WEATHER ACROSS NORTHERN MINNESOTA  *****

CITY           SKY/WX    TMP DP  RH WIND       PRES   REMARKS
FLAG ISLAND    FAIR      19  16  86 S9        29.65F WCI   9
WARROAD        FAIR      30  25  80 S6        29.67S WCI  24
ROSEAU         FAIR      30  23  74 S10       29.65F WCI  21
HALLOCK        FAIR      27  23  86 S20       29.61F WCI  13
THF RVR FALLS  FAIR      28  23  81 S10       29.68F WCI  19
BAUDETTE       FAIR      30  22  72 S6        29.67F WCI  24
WASKISH        FAIR      32  27  80 CALM      29.71S
CROOKSTON      FAIR      30  25  80 S17       29.68F WCI  18
GREENBUSH NDAW   N/A     28  25  86 S13         N/A  WCI  18
$$
  *****  WEATHER ACROSS CENTRAL AND WEST MINNESOTA  *****

CITY           SKY/WX    TMP DP  RH WIND       PRES   REMARKS
FOSSTON        FAIR      28  21  74 S14       29.70S WCI  17
BEMIDJI        FAIR      32  24  72 S6        29.72S
PARK RAPIDS    FAIR      26  19  74 SE6       29.73F WCI  19
ELBOW LAKE     FAIR      30  28  90 E10       29.74F FOG     WCI  21
WADENA         FAIR      27  23  86 CALM      29.74F
DETROIT LAKES  FAIR      32  27  80 SE7       29.73F
MOORHEAD       FAIR      28  25  86 S12       29.73S WCI  18
FERGUS FALLS   FAIR      30  27  86 SE9       29.78F WCI  22
MORRIS MN      FAIR      28  27  93 SE9       29.74S WCI  20
STAPLES        FAIR      28  25  86 CALM      29.76S
$$
  *****  WEATHER ELSEWHERE ACROSS MINNESOTA  *****

CITY           SKY/WX    TMP DP  RH WIND       PRES   REMARKS
DULUTH         FAIR      34  27  75 SW9       29.79S
INTRNTL FALLS  FAIR      28  22  78 SE5       29.71F WCI  23
ELY            FAIR      30  25  80 SW5       29.76S
CLOQUET        FAIR      34  27  75 CALM      29.80S
WHEATON        FAIR      34  30  86 SE9       29.75S
BRAINERD       FAIR      29  26  89 S8        29.78S WCI  21
HIBBING        FAIR      30  24  78 S3        29.77S
ALEXANDRIA     FAIR      28  26  92 SE7       29.76F WCI  21
SAINT CLOUD    FAIR      29  28  96 SE7       29.80F WCI  22
MINNEAPOLIS    FAIR      33  30  88 SE5       29.84F
$$

  *****  WEATHER ACROSS SOUTH DAKOTA  *****

CITY           SKY/WX    TMP DP  RH WIND       PRES   REMARKS
SIOUX FALLS    FAIR      40  37  89 S14       29.77S
BROOKINGS      FAIR      34  32  92 S12       29.73F
WATERTOWN      FAIR      27  26  96 SE8       29.72F WCI  19
HURON          FAIR      35  33  92 S13       29.69F
SISSETON         N/A     29  25  85 SE6       29.71F WCI  23
ABERDEEN       FAIR      20  17  88 CALM      29.70F FOG
MITCHELL       FAIR      36  34  92 S10       29.72F
PIERRE         FAIR      19  16  88 NE3       29.64F
MOBRIDGE       FAIR      23  17  78 SE8       29.63F WCI  14
RAPID CITY     FAIR      28  23  81 N9        29.58F WCI  19
$$

  *****  SOME WEATHER IN NEARBY STATES *****

CITY           SKY/WX    TMP DP  RH WIND       PRES   REMARKS
GLASGOW MT     FAIR      31  25  78 E10       29.50S WCI  22
GREAT FALLS MT FAIR      42  25  50 SW15      29.51F
CHEYENNE WY    FAIR      31  18  58 W6        29.72F
SCOTTSBLUFF NE FAIR      32  23  69 CALM      29.69F
OMAHA NE       FAIR      40  34  79 S12       29.89F
DES MOINES IA  FOG       35  34  96 S10       29.96F VSB 1/2
DAVENPORT IA   FAIR      28  27  96 SE7       30.03F FOG     WCI  21
CHICAGO IL     CLOUDY    35  32  88 SW10      30.05F
EAU CLAIRE WI  FAIR      30  28  92 SE3       29.89S FOG
LA CROSSE WI   CLOUDY    36  31  82 S12       29.94F
$$

  *****  SOME NATIONAL WEATHER *****

CITY           SKY/WX    TMP DP  RH WIND       PRES   REMARKS
LA GUARDIA NY  CLOUDY    42  36  79 N8        30.02S
RALEIGH NC     FAIR      52  34  50 N3        30.06R
ATLANTA GA     MOCLDY    60  52  74 NW5       30.10R
NEW ORLEANS LA CLOUDY    71  69  93 SE9       30.04F
OKLAHOMA CITY  FAIR      42  40  92 S8        29.94F
ALBUQUERQUE NM MOCLDY    43  31  62 N8        30.00S
SALT LAKE CITY FAIR      24  21  88 CALM      29.94F FOG
LOS ANGELES CA RAIN      55  49  80 W7        30.12F
BOISE ID       FRZ RAIN  32  30  92 SE14      29.75S FOG     WCI  22
SEATTLE WA     CLOUDY    47  40  76 SE8       29.25R
$$

*** WEATHER ACROSS MANITOBA...SASKATCHEWAN AND ONTARIO ***
                ***ONTARIO***

CITY           SKY/WX    TMP DP  RH WIND       PRES   REMARKS
GERALDTON      CLEAR     18  16  93 CALM      29.79S
THUNDER BAY    CLEAR     21  19  93 SW5       29.80S WCI  15
SIOUX LOOKOUT  MOCLDY    28  23  80 S6        29.70F WCI  22
TORONTO        CLOUDY    37  34  87 W7        29.97S
BIG TROUT LK   FLURRIES  30  30 100 S8        29.70F WCI  23
PICKLE LAKE    NOT AVBL
DRYDEN         PTCLDY    28  25  86 S7        29.68F WCI  21
KENORA         PTCLDY    32  25  74 S12       29.64F WCI  23
$$
                *** MANITOBA***

CITY           SKY/WX    TMP DP  RH WIND       PRES   REMARKS
BRANDON        PTCLDY    27  23  86 W9        29.49F WCI  17
DAUPHIN        MOCLDY    37  28  70 SW14G20   29.38F
ISLAND LAKE    MOCLDY    30  27  86 E10G20    29.54F WCI  21
PILOT MOUND      N/A     25  23  93 S14         N/A  WCI  13
THE PAS        CLEAR     28  25  86 SE12      29.29F WCI  18
THOMPSON       LGT RAIN  32  30  93 E6        29.46S
WINNIPEG       PTCLDY    28  23  80 S24       29.54F WCI  14
LYNN LAKE      CLOUDY    32  32 100 SE15      29.30F WCI  22
CHURCHILL      FLURRIES   7   5  92 SE12      29.70R WCI  -9
GILLAM         FLURRIES  25  21  86 E3        29.60S
$$
                ***SASKATCHEWAN***

CITY           SKY/WX    TMP DP  RH WIND       PRES   REMARKS
ESTEVAN        CLEAR     30  25  80 SW16      29.48F WCI  19
KINDERSLEY     PTCLDY    36  30  80 S8        29.29F
LLOYDMINSTER   MOCLDY    34  28  80 W8        29.20F
PRINCE ALBERT  MOCLDY    25  23  93 S2        29.20F
REGINA         PTCLDY    34  28  80 SE10      29.40F
YORKTON        CLEAR     36  30  80 SW10      29.36S
N. BATTLEFORD  CLEAR     36  30  80 W10       29.27R
LA RONGE       CLEAR     27  25  93 SE3       29.17F
SASKATOON      CLEAR     36  32  87 SW14G21   29.28R
SWIFT CURRENT  CLEAR     36  32  87 SW13      29.37F
$$
NOTE: THESE ARE AUTOMATED STATIONS WITH LIMITED QUALITY CONTROL
      "FAIR" INDICATES FEW OR NO CLOUDS BELOW 12,000 FEET WITH NO
      SIGNIFICANT WEATHER AND/OR OBSTRUCTIONS TO VISIBILITY.
      SKY/WX - SKY CONDITION AND SIGNIFICANT WEATHER.
      TMP - AIR TEMPERATURE.    DP   - DEWPOINT TEMPERATURE.
      RH  - RELATIVE HUMIDITY.  PRES - PRESSURE.
      HX  - HEAT INDEX.         WCI  - WIND CHILL INDEX.
$




USA.gov is the U.S. government's official web portal to all federal, state and local government web resources and services.